Regional Weather Roundup
Issued by NWS

Home | Current Version | Previous Version | Text Only | Print | Product List | Glossary Off
Versions: 1 2 3 4 5 6 7 8 9 10 11 12 13 14 15 16 17 18 19 20 21 22 23 24 25 26 27 28 29 30 31 32 33 34 35 36 37 38 39 40 41 42 43 44 45 46 47 48 49 50

000
ASUS43 KDTX 251610
RWRMI
MICHIGAN HOURLY REGIONAL WEATHER ROUNDUP
NATIONAL WEATHER SERVICE DETROIT/PONTIAC MI
1200 PM EDT THU MAY 25 2017

NOTE: "FAIR" INDICATES FEW OR NO CLOUDS BELOW 12,000 FEET WITH NO
SIGNIFICANT WEATHER AND/OR OBSTRUCTION TO VISIBILITY.

MIZ047>049-052>055-059>063-066>070-074>076-081>083-251700-
SOUTHEAST LOWER MICHIGAN

CITY           SKY/WX    TMP DP  RH WIND       PRES   REMARKS
ADRIAN         CLOUDY    62  59  90 NE9       29.48S
ALMA           CLOUDY    56  56  98 NW9       29.55S FOG
ANN ARBOR      CLOUDY    61  59  93 N10       29.47S
BAD AXE        CLOUDY    54  54  99 NE5       29.53S FOG
CARO           CLOUDY    58  56  93 NE6       29.50F
DETROIT CITY   LGT RAIN  58  58 100 NE5       29.48S FOG
DETROIT        LGT RAIN  60  58  92 N9        29.48S FOG
FLINT          CLOUDY    57  56  96 N8        29.50S
GROSSE ILE     LGT RAIN  59  58  94 N8        29.46S
HILLSDALE      CLOUDY    59  55  88 N10       29.49R
HOWELL         CLOUDY    57  55  92 N6        29.50S FOG

CITY           SKY/WX    TMP DP  RH WIND       PRES   REMARKS
JACKSON        CLOUDY    59  56  89 N9        29.50R FOG
LAMBERTVILLE   CLOUDY    60  58  92 NE6       29.47R
LANSING        CLOUDY    60  55  83 N7        29.53R
LAPEER         CLOUDY    57  56  96 NE8       29.50F FOG
MASON          CLOUDY    58  56  95 N8G16     29.51S FOG
MONROE         LGT RAIN  59  58  96 NE6       29.46S
MT. CLEMENS    DRIZZLE   59  59 100 NE7       29.47S FOG
PONTIAC        CLOUDY    60  56  86 N8        29.48S
PORT HOPE        N/A     50  49  96 NE15      29.51F
PORT HURON     DRIZZLE   57  55  94 N3        29.49S
TRI CITIES     CLOUDY    56  55  97 NE14      29.54S FOG
MIDLAND        CLOUDY    58  54  88 N5        29.54S
TROY           CLOUDY    59  57  91 NE3       29.50S
SAGINAW HB     CLOUDY    55  54  94 N13       29.51F FOG
$$
MIZ043>046-050>051-056>058-064>065-071>073-077>080-251700-
SOUTHWEST LOWER MICHIGAN

CITY           SKY/WX    TMP DP  RH WIND       PRES   REMARKS
BATTLE CREEK   CLOUDY    57  56  96 N8        29.54R
BENTON HARBOR  CLOUDY    54  50  86 VRB3      29.57S
BIG RAPIDS     CLOUDY    58  53  81 NE6       29.57S
COLDWATER      CLOUDY    58  58 100 N12       29.52R FOG
FREMONT        CLOUDY    60  55  84 N8        29.58S
HOLLAND        CLOUDY    60  54  80 N7        29.57R
GRAND RAPIDS   CLOUDY    60  57  89 N6        29.55R
IONIA          CLOUDY    58  55  91 N9        29.53S
KALAMAZOO      CLOUDY    59  55  87 N9        29.54R FOG
LUDINGTON      CLOUDY    62  55  76 NE8       29.60S
MARSHALL       CLOUDY    58  57  99 N6        29.52R FOG
MOUNT PLEASANT CLOUDY    58  55  89 N7        29.55S
MUSKEGON       LGT RAIN  63  55  75 N8        29.58S
SOUTH HAVEN    CLOUDY    57  55  92 N10       29.56S
$$
MIZ016>042-251700-
NORTHERN LOWER MICHIGAN

CITY           SKY/WX    TMP DP  RH WIND       PRES   REMARKS
ALPENA         LGT RAIN  54  54 100 NE18G25   29.60F FOG
BEAVER ISLAND  DRIZZLE   60  54  79 N7        29.68S
BELLAIRE       CLOUDY    57  53  87 N8G17     29.63S
CADILLAC       CLOUDY    57  54  92 N9        29.59S
CHARLEVOIX     LGT RAIN  59  55  85 NE9       29.67S
FRANKFORT      PTSUNNY   61  51  70 N8        29.63S
GAYLORD          N/A     54  51  90 NE10      29.62S FOG
GRAYLING       CLOUDY    54  53  96 N12       29.61S
HARBOR SPRINGS CLOUDY    56  55  97 NE10G16   29.64F
HOUGHTON LAKE  CLOUDY    56  53  90 NE10      29.58F
MANISTEE       CLOUDY    62  55  77 NE8       29.61F
OSCODA         FOG       51  50  97 NE10      29.55F VSB 3/4
PELLSTON       CLOUDY    57  53  86 N12       29.65F
ROGERS CITY    RAIN      48  47  97 NE6       29.63F VSB 3/4
TRAVERSE CITY  LGT RAIN  57  54  89 N7        29.61F
$$
MIZ007>008-015-251700-
EASTERN UPPER MICHIGAN

CITY           SKY/WX    TMP DP  RH WIND       PRES   REMARKS
KINROSS        LGT RAIN  59  54  83 N13       29.68F
MACKINAC ISLAN LGT RAIN  56  56 100 N9        29.66S
NEWBERRY       CLOUDY    60  54  82 N5        29.70S
S. S. MARIE    LGT RAIN  61  53  75 NE7       29.68F
MUNISING         N/A     47  41  80 N12       29.73S
$$
MIZ004>006-011>014-085-251700-
CENTRAL UPPER MICHIGAN

CITY           SKY/WX    TMP DP  RH WIND       PRES   REMARKS
MANISTIQUE     CLOUDY    62  52  68 NE8       29.69S
ESCANABA       CLOUDY    63  51  65 N7        29.69F
MENOMINEE      MOSUNNY   61  52  72 E15       29.69F
SAWYER-GWINN   SUNNY     57  46  67 NE9       29.74S
$$
MIZ001>003-009>011-084-251700-
WESTERN UPPER MICHIGAN

CITY           SKY/WX    TMP DP  RH WIND       PRES   REMARKS
IRON MOUNTAIN  MOSUNNY   66  49  54 MISG      29.69F
HOUGHTON       SUNNY     62  46  55 E8        29.74F
COPPER HARBOR    N/A     48  41  76 CALM      29.76S
IRONWOOD       CLOUDY    63  46  54 SE7       29.73F
$$

ABBREVIATIONS USED IN REMARKS
   TC - TEMPERATURE IN CELSIUS
  WCI - WIND CHILL INDEX
   HX - HEAT INDEX
  VSB - VISIBILITY





USA.gov is the U.S. government's official web portal to all federal, state and local government web resources and services.